DW5640 Weather Reports


time (UTC)temp
C
wind
direction
speed
KPH
gust
KPH
rain 1hr
cm
rain 24hr
cm
rain mn
cm
humidity
%
barometer
mb
20260504130436 13 129 8.0 16.1 0.00 0.00 0.00 69 1003.0
20260504110440 -17 133 0.0 4.8 0.00 0.00 0.00 1003.1
20260504100430 -17 136 4.8 9.7 0.00 0.00 0.00 1003.6
20260504081939 -17 145 0.0 3.2 0.00 0.00 0.00 1003.9
20260504081427 -17 145 0.0 1.6 0.00 0.00 0.00 1003.9
20260504080931 -17 145 0.0 4.8 0.00 0.00 0.00 1003.9
20260504080437 -17 145 1.6 4.8 0.00 0.00 0.00 1004.0
20260504050426 -17 157 6.4 12.9 0.00 0.00 0.00 1005.6
20260504045932 -17 148 6.4 12.9 0.00 0.00 0.00 1005.6
20260504045438 -17 156 6.4 9.7 0.00 0.00 0.00 1005.5
20260504044924 -17 152 6.4 11.3 0.00 0.00 0.00 1005.5
20260504044431 -17 154 6.4 11.3 0.00 0.00 0.00 1005.5
20260504043959 -17 155 4.8 6.4 0.00 0.00 0.00 1005.6
20260504043427 -17 154 4.8 8.0 0.00 0.00 0.00 1005.6
20260504042939 -17 152 4.8 8.0 0.00 0.00 0.00 1005.5
20260504042429 -17 156 4.8 6.4 0.00 0.00 0.00 1005.5
20260504041921 -17 152 3.2 4.8 0.00 0.00 0.00 1005.5
20260504041431 -17 153 3.2 4.8 0.00 0.00 0.00 1005.5
20260504040940 -17 153 1.6 4.8 0.00 0.00 0.00 1005.5
20260504040430 -17 153 3.2 6.4 0.00 0.00 0.00 1005.5
20260504035938 -17 152 3.2 9.7 0.00 0.00 0.00 1005.6
20260504035430 -17 148 4.8 9.7 0.00 0.00 0.00 1005.5
20260504034955 -17 151 4.8 9.7 0.00 0.00 0.00 1005.5
20260504034443 -17 153 6.4 9.7 0.00 0.00 0.00 1005.5
20260504033931 -17 151 6.4 12.9 0.00 0.00 0.00 1005.5
20260504033439 -17 144 6.4 12.9 0.00 0.00 0.00 1005.5
20260504032927 -17 155 6.4 11.3 0.00 0.00 0.00 1005.6
20260504032439 -17 155 4.8 9.7 0.00 0.00 0.00 1005.6
20260504031930 -17 149 6.4 9.7 0.00 0.00 0.00 1005.6
20260504031440 -17 154 4.8 12.9 0.00 0.00 0.00 1005.6
20260504030931 -17 141 6.4 11.3 0.00 0.00 0.00 1005.5
20260504030442 -17 153 8.0 11.3 0.00 0.00 0.00 1005.5
20260504025930 -17 154 6.4 14.5 0.00 0.00 0.00 1005.5
20260504025441 -17 150 6.4 14.5 0.00 0.00 0.00 1005.5
20260504024436 -17 143 4.8 11.3 0.00 0.00 0.00 1005.3
20260504023946 -17 153 8.0 12.9 0.00 0.00 0.00 1005.3
20260504023453 -17 152 8.0 16.1 0.00 0.00 0.00 1005.2
20260504022938 -17 151 8.0 12.9 0.00 0.00 0.00 1005.2
20260504022424 -17 150 9.7 12.9 0.00 0.00 0.00 1005.2
20260504021934 -17 152 9.7 20.9 0.00 0.00 0.00 1005.1
20260504021501 -17 143 8.0 20.9 0.00 0.00 0.00 1004.9
20260504020930 -17 77 9.7 17.7 0.00 0.00 0.00 1004.9
20260504020437 -17 152 9.7 17.7 0.00 0.00 0.00 1004.8
20260504015929 -17 136 11.3 17.7 0.00 0.00 0.00 1004.8
20260504015437 -17 108 8.0 14.5 0.00 0.00 0.00 1004.7
20260504014925 -17 139 8.0 17.7 0.00 0.00 0.00 1004.7
20260504014436 -17 148 11.3 17.7 0.00 0.00 0.00 1004.6
20260504013941 -17 140 9.7 16.1 0.00 0.00 0.00 1004.6
20260504013427 -17 135 8.0 16.1 0.00 0.00 0.00 1004.6
20260504012935 -17 142 8.0 16.1 0.00 0.00 0.00 1004.6
20260504012505 -17 136 9.7 17.7 0.00 0.00 0.00 1004.6
20260504011952 -17 144 8.0 16.1 0.00 0.00 0.00 1004.6
20260504011436 -17 141 8.0 14.5 0.00 0.00 0.00 1004.6
20260504010941 -17 138 6.4 14.5 0.00 0.00 0.00 1004.5
20260504010429 -17 144 9.7 14.5 0.00 0.00 0.00 1004.6
20260504005936 19 150 8.0 14.5 0.00 0.00 0.00 50 1004.6
20260504005426 19 146 9.7 14.5 0.00 0.00 0.00 50 1004.5
20260504004933 19 162 8.0 16.1 0.00 0.00 0.00 50 1004.6
20260504004423 19 145 9.7 17.7 0.00 0.00 0.00 49 1004.6
20260504003934 19 180 9.7 16.1 0.00 0.00 0.00 49 1004.6
20260504003441 20 154 9.7 14.5 0.00 0.00 0.00 48 1004.6
20260504002927 20 154 8.0 17.7 0.00 0.00 0.00 47 1004.7
20260504002430 20 165 11.3 17.7 0.00 0.00 0.00 47 1004.7
20260504001938 20 149 11.3 17.7 0.00 0.00 0.00 46 1004.7
20260504001426 20 173 11.3 27.4 0.00 0.00 0.00 45 1004.6
20260504000932 20 139 12.9 27.4 0.00 0.00 0.00 45 1004.6
20260504000437 20 171 11.3 24.1 0.00 0.00 0.00 44 1004.6
20260503235924 21 163 11.3 24.1 0.00 0.00 0.00 44 1004.6
20260503235435 21 155 12.9 20.9 0.00 0.00 0.00 43 1004.6
20260503234940 21 160 14.5 22.5 0.00 0.00 0.00 43 1004.6
20260503234427 21 169 11.3 22.5 0.00 0.00 0.00 43 1004.6
20260503233932 21 148 11.3 24.1 0.00 0.00 0.00 43 1004.6
20260503233441 21 153 11.3 22.5 0.00 0.00 0.00 44 1004.7
20260503233004 21 141 14.5 22.5 0.00 0.00 0.00 42 1004.6
20260503232432 21 166 9.7 19.3 0.00 0.00 0.00 43 1004.6
20260503231944 21 160 12.9 19.3 0.00 0.00 0.00 42 1004.6
20260503231431 21 150 11.3 22.5 0.00 0.00 0.00 42 1004.6
20260503230940 21 167 12.9 22.5 0.00 0.00 0.00 43 1004.6
20260503230506 21 146 11.3 22.5 0.00 0.00 0.00 43 1004.6
20260503225928 21 157 11.3 22.5 0.00 0.00 0.00 42 1004.7
20260503225457 21 148 12.9 22.5 0.00 0.00 0.00 41 1004.7
20260503224944 21 163 12.9 29.0 0.00 0.00 0.00 42 1004.8
20260503224432 21 122 14.5 29.0 0.00 0.00 0.00 42 1004.8
20260503223938 21 159 9.7 20.9 0.00 0.00 0.00 44 1004.8
20260503223429 21 134 14.5 22.5 0.00 0.00 0.00 42 1004.8
20260503222934 21 142 12.9 20.9 0.00 0.00 0.00 42 1004.8
20260503222440 21 201 12.9 20.9 0.00 0.00 0.00 43 1005.0
20260503221948 21 144 11.3 22.5 0.00 0.00 0.00 44 1005.0
20260503221433 21 145 12.9 29.0 0.00 0.00 0.00 44 1004.9
20260503220938 21 142 20.9 27.4 0.00 0.00 0.00 42 1005.0
20260503220430 21 178 14.5 32.2 0.00 0.00 0.00 42 1005.0
20260503215937 21 164 16.1 32.2 0.00 0.00 0.00 43 1005.0
20260503215506 21 165 14.5 30.6 0.00 0.00 0.00 42 1005.0
20260503214951 21 142 16.1 29.0 0.00 0.00 0.00 42 1004.9
20260503214456 21 161 16.1 30.6 0.00 0.00 0.00 43 1005.1
20260503213924 21 165 11.3 30.6 0.00 0.00 0.00 44 1005.2
20260503213433 21 148 12.9 24.1 0.00 0.00 0.00 43 1005.3
20260503212942 21 214 16.1 29.0 0.00 0.00 0.00 44 1005.3
20260503212430 20 153 19.3 32.2 0.00 0.00 0.00 44 1005.3
20260503211956 20 142 16.1 32.2 0.00 0.00 0.00 45 1005.3
20260503211443 21 152 12.9 27.4 0.00 0.00 0.00 45 1005.4
20260503210930 20 121 14.5 27.4 0.00 0.00 0.00 45 1005.5
20260503210458 20 196 14.5 27.4 0.00 0.00 0.00 45 1005.5
20260503205922 20 161 12.9 29.0 0.00 0.00 0.00 47 1005.6
20260503205433 20 177 17.7 29.0 0.00 0.00 0.00 44 1005.6
20260503204938 20 173 12.9 32.2 0.00 0.00 0.00 44 1005.7
20260503204426 20 139 19.3 32.2 0.00 0.00 0.00 43 1005.7
20260503203932 20 170 14.5 27.4 0.00 0.00 0.00 43 1005.8
20260503203423 20 183 11.3 24.1 0.00 0.00 0.00 44 1005.8
20260503202950 20 130 11.3 19.3 0.00 0.00 0.00 45 1006.0
20260503202435 20 152 11.3 27.4 0.00 0.00 0.00 46 1006.1
20260503201926 20 164 12.9 27.4 0.00 0.00 0.00 45 1006.2
20260503201450 20 184 12.9 24.1 0.00 0.00 0.00 44 1006.2
20260503200936 20 190 12.9 25.7 0.00 0.00 0.00 46 1006.3
20260503200428 20 228 11.3 25.7 0.00 0.00 0.00 45 1006.4
20260503195444 19 163 16.1 33.8 0.00 0.00 0.00 45 1006.5
20260503194944 19 147 17.7 30.6 0.00 0.00 0.00 45 1006.5
20260503194441 19 192 20.9 30.6 0.00 0.00 0.00 45 1006.6
20260503193939 19 146 16.1 27.4 0.00 0.00 0.00 45 1006.6
20260503193437 19 148 16.1 25.7 0.00 0.00 0.00 46 1006.8
20260503192935 19 147 17.7 30.6 0.00 0.00 0.00 45 1006.8
20260503192432 19 165 14.5 30.6 0.00 0.00 0.00 46 1006.9
20260503191930 18 187 14.5 32.2 0.00 0.00 0.00 47 1006.9
20260503191433 18 145 20.9 32.2 0.00 0.00 0.00 44 1007.0
20260503190930 19 157 16.1 33.8 0.00 0.00 0.00 46 1007.0
20260503190429 19 166 19.3 33.8 0.00 0.00 0.00 46 1007.0
20260503185947 19 223 14.5 33.8 0.00 0.00 0.00 48 1007.2
20260503185423 18 205 20.9 33.8 0.00 0.03 0.00 45 1007.1
20260503184925 18 92 12.9 35.4 0.00 0.03 0.00 50 1007.3
20260503184504 18 128 19.3 37.0 0.00 0.03 0.00 47 1007.4
20260503183940 18 150 24.1 37.0 0.00 0.03 0.00 48 1007.6
20260503183438 17 182 20.9 35.4 0.00 0.03 0.00 48 1007.6
20260503182935 17 161 20.9 43.5 0.00 0.03 0.00 48 1007.7
20260503182431 17 159 22.5 43.5 0.00 0.03 0.00 47 1007.7
20260503181927 17 136 22.5 33.8 0.00 0.03 0.00 48 1007.9
20260503181429 17 132 17.7 40.2 0.00 0.03 0.00 50 1008.0
20260503180929 17 178 24.1 46.7 0.00 0.03 0.00 47 1007.9
20260503180428 17 148 25.7 46.7 0.00 0.03 0.00 47 1008.2
20260503175927 17 132 20.9 48.3 0.00 0.03 0.00 50 1008.2
20260503175424 17 127 24.1 61.2 0.00 0.03 0.00 47 1008.3
20260503174923 17 140 30.6 61.2 0.00 0.03 0.00 46 1008.3
20260503174441 17 130 25.7 43.5 0.00 0.03 0.00 45 1008.4
20260503173937 17 142 17.7 41.8 0.00 0.03 0.00 50 1008.5
20260503173439 17 132 17.7 38.6 0.00 0.03 0.00 49 1008.5
20260503172939 16 125 14.5 37.0 0.00 0.03 0.00 50 1008.6
20260503172437 16 149 14.5 35.4 0.00 0.03 0.00 51 1008.6
20260503171936 16 133 17.7 37.0 0.00 0.03 0.00 53 1008.7
20260503171432 16 120 17.7 41.8 0.00 0.03 0.00 53 1008.7
20260503170932 16 130 24.1 38.6 0.00 0.03 0.00 49 1008.8
20260503170429 16 124 14.5 38.6 0.00 0.03 0.00 55 1009.0
20260503150927 8 84 1.6 8.0 0.00 0.05 0.00 80 1011.7
20260503150427 8 121 3.2 8.0 0.00 0.05 0.00 81 1011.9